Terminal Aerodrome Forecast
Issued by NWS Northern Indiana

Home | Current Version | Previous Version | Graphics & Text | Print | Product List | Glossary On
Versions: 1 2 3 4 5 6 7 8 9 10 11 12 13
000
FTUS43 KIWX 250534
TAFFWA
TAF
KFWA 250534Z 2506/2606 24007KT P6SM VCTS BKN100CB
      TEMPO 2506/2510 5SM TSRA BKN050CB
     FM251100 25005KT P6SM SCT020 BKN090
     FM251900 29008KT P6SM SCT250
     FM260000 32006KT P6SM FEW250
     FM260500 33004KT P6SM SKC=

USA.gov is the U.S. government's official web portal to all federal, state and local government web resources and services.